| time (UTC) | temp C | wind direction | speed KPH | gust KPH | rain 1hr cm | rain 24hr cm | rain mn cm | humidity % | barometer mb |
| 20260510145113 | 27 | 267 | 1.6 | 4.8 | 0.00 | 0.00 | 0.00 | 70 | 1008.6 |
| 20260510144537 | 26 | 307 | 1.6 | 4.8 | 0.00 | 0.00 | 0.00 | 69 | 1008.6 |
| 20260510144058 | 26 | 336 | 0.0 | 4.8 | 0.00 | 0.00 | 0.00 | 69 | 1008.6 |
| 20260510143616 | 26 | 336 | 0.0 | 4.8 | 0.00 | 0.00 | 0.00 | 69 | 1008.6 |
| 20260510143034 | 26 | 337 | 1.6 | 4.8 | 0.00 | 0.00 | 0.00 | 69 | 1008.5 |
| 20260510142539 | 25 | 337 | 0.0 | 6.4 | 0.00 | 0.00 | 0.00 | 69 | 1008.6 |
| 20260510142128 | 25 | 344 | 1.6 | 6.4 | 0.00 | 0.00 | 0.00 | 69 | 1008.6 |
| 20260510141518 | 25 | 12 | 3.2 | 4.8 | 0.00 | 0.00 | 0.00 | 69 | 1008.4 |
| 20260510141100 | 25 | 20 | 1.6 | 4.8 | 0.00 | 0.00 | 0.00 | 70 | 1008.5 |
| 20260510140621 | 25 | 21 | 1.6 | 3.2 | 0.00 | 0.00 | 0.00 | 71 | 1008.5 |
| 20260510140004 | 25 | 22 | 1.6 | 3.2 | 0.00 | 0.00 | 0.00 | 72 | 1008.4 |
| 20260510135526 | 24 | 21 | 0.0 | 4.8 | 0.00 | 0.00 | 0.00 | 72 | 1008.4 |
| 20260510135056 | 24 | 21 | 1.6 | 4.8 | 0.00 | 0.00 | 0.00 | 72 | 1008.4 |
| 20260510134619 | 24 | 21 | 1.6 | 4.8 | 0.00 | 0.00 | 0.00 | 73 | 1008.3 |
| 20260510134013 | 24 | 14 | 1.6 | 4.8 | 0.00 | 0.00 | 0.00 | 73 | 1008.3 |
| 20260510133534 | 24 | 14 | 1.6 | 4.8 | 0.00 | 0.00 | 0.00 | 73 | 1008.4 |
| 20260510133045 | 24 | 14 | 1.6 | 4.8 | 0.00 | 0.00 | 0.00 | 73 | 1008.2 |
| 20260510132606 | 23 | 14 | 1.6 | 4.8 | 0.00 | 0.00 | 0.00 | 73 | 1008.1 |
| 20260510132018 | 23 | 14 | 1.6 | 3.2 | 0.00 | 0.00 | 0.00 | 73 | 1008.1 |
| 20260510131538 | 23 | 14 | 0.0 | 3.2 | 0.00 | 0.00 | 0.00 | 73 | 1008.0 |
| 20260510131059 | 23 | 14 | 0.0 | 4.8 | 0.00 | 0.00 | 0.00 | 73 | 1008.0 |
| 20260510130619 | 23 | 14 | 1.6 | 6.4 | 0.00 | 0.00 | 0.00 | 73 | 1007.9 |
| 20260510130004 | 23 | 14 | 3.2 | 6.4 | 0.00 | 0.00 | 0.00 | 72 | 1007.8 |
| 20260510125518 | 23 | 14 | 1.6 | 4.8 | 0.00 | 0.00 | 0.00 | 72 | 1007.8 |
| 20260510125021 | 23 | 14 | 0.0 | 3.2 | 0.00 | 0.00 | 0.00 | 72 | 1007.7 |
| 20260510124536 | 23 | 119 | 0.0 | 0.0 | 0.00 | 0.00 | 0.00 | 71 | 1007.5 |
| 20260510124101 | 23 | 119 | 0.0 | 0.0 | 0.00 | 0.00 | 0.00 | 69 | 1007.5 |
| 20260510123620 | 23 | 119 | 0.0 | 0.0 | 0.00 | 0.00 | 0.00 | 70 | 1007.5 |
| 20260510123028 | 23 | 119 | 0.0 | 0.0 | 0.00 | 0.00 | 0.00 | 69 | 1007.5 |
| 20260510122537 | 23 | 119 | 0.0 | 0.0 | 0.00 | 0.00 | 0.00 | 69 | 1007.5 |
| 20260510122103 | 23 | 119 | 0.0 | 0.0 | 0.00 | 0.00 | 0.00 | 69 | 1007.5 |
| 20260510121617 | 23 | 119 | 0.0 | 0.0 | 0.00 | 0.00 | 0.00 | 70 | 1007.4 |
| 20260510121010 | 23 | 119 | 0.0 | 0.0 | 0.00 | 0.00 | 0.00 | 70 | 1007.3 |
| 20260510120527 | 23 | 119 | 0.0 | 0.0 | 0.00 | 0.00 | 0.00 | 70 | 1007.2 |
| 20260510120048 | 23 | 119 | 0.0 | 0.0 | 0.00 | 0.00 | 0.00 | 70 | 1007.2 |
| 20260510115531 | 23 | 119 | 0.0 | 0.0 | 0.00 | 0.00 | 0.00 | 71 | 1007.1 |
| 20260510115102 | 23 | 119 | 0.0 | 0.0 | 0.00 | 0.00 | 0.00 | 71 | 1007.1 |
| 20260510114619 | 23 | 119 | 0.0 | 0.0 | 0.00 | 0.00 | 0.00 | 72 | 1007.0 |
| 20260510114013 | 23 | 119 | 0.0 | 0.0 | 0.00 | 0.00 | 0.00 | 72 | 1007.0 |
| 20260510113529 | 23 | 119 | 0.0 | 0.0 | 0.00 | 0.00 | 0.00 | 72 | 1006.9 |
| 20260510113105 | 23 | 119 | 0.0 | 0.0 | 0.00 | 0.00 | 0.00 | 72 | 1006.9 |
| 20260510112622 | 24 | 119 | 0.0 | 0.0 | 0.00 | 0.00 | 0.00 | 73 | 1006.9 |
| 20260510112014 | 24 | 119 | 0.0 | 0.0 | 0.00 | 0.00 | 0.00 | 73 | 1006.9 |
| 20260510111533 | 24 | 119 | 0.0 | 0.0 | 0.00 | 0.00 | 0.00 | 73 | 1006.9 |
| 20260510111101 | 24 | 119 | 0.0 | 0.0 | 0.00 | 0.00 | 0.00 | 73 | 1006.9 |
| 20260510110623 | 24 | 119 | 0.0 | 0.0 | 0.00 | 0.00 | 0.00 | 73 | 1006.8 |
| 20260510110016 | 24 | 119 | 0.0 | 0.0 | 0.00 | 0.00 | 0.00 | 73 | 1006.8 |
| 20260510105528 | 24 | 119 | 0.0 | 0.0 | 0.00 | 0.00 | 0.00 | 73 | 1006.8 |
| 20260510105056 | 24 | 119 | 0.0 | 0.0 | 0.00 | 0.00 | 0.00 | 73 | 1006.8 |
| 20260510104611 | 24 | 119 | 0.0 | 0.0 | 0.00 | 0.00 | 0.00 | 73 | 1006.8 |
| 20260510104007 | 24 | 119 | 0.0 | 0.0 | 0.00 | 0.00 | 0.00 | 73 | 1006.8 |
| 20260510103531 | 24 | 119 | 0.0 | 0.0 | 0.00 | 0.00 | 0.00 | 72 | 1006.6 |
| 20260510103050 | 24 | 119 | 0.0 | 0.0 | 0.00 | 0.00 | 0.00 | 72 | 1006.6 |
| 20260510102610 | 24 | 119 | 0.0 | 0.0 | 0.00 | 0.00 | 0.00 | 72 | 1006.6 |
| 20260510102017 | 25 | 119 | 0.0 | 0.0 | 0.00 | 0.00 | 0.00 | 72 | 1006.5 |
| 20260510101529 | 25 | 119 | 0.0 | 0.0 | 0.00 | 0.00 | 0.00 | 73 | 1006.6 |
| 20260510101105 | 25 | 119 | 0.0 | 0.0 | 0.00 | 0.00 | 0.00 | 73 | 1006.6 |
| 20260510100626 | 25 | 119 | 0.0 | 0.0 | 0.00 | 0.00 | 0.00 | 73 | 1006.6 |
| 20260510100042 | 25 | 119 | 0.0 | 0.0 | 0.00 | 0.00 | 0.00 | 73 | 1006.6 |
| 20260510095618 | 25 | 119 | 0.0 | 0.0 | 0.00 | 0.00 | 0.00 | 72 | 1006.6 |
| 20260510095011 | 25 | 119 | 0.0 | 0.0 | 0.00 | 0.00 | 0.00 | 72 | 1006.6 |
| 20260510094543 | 25 | 119 | 0.0 | 0.0 | 0.00 | 0.00 | 0.00 | 71 | 1006.7 |
| 20260510094103 | 25 | 119 | 0.0 | 0.0 | 0.00 | 0.00 | 0.00 | 71 | 1006.8 |
| 20260510093618 | 25 | 119 | 0.0 | 0.0 | 0.00 | 0.00 | 0.00 | 71 | 1006.8 |
| 20260510093013 | 25 | 119 | 0.0 | 0.0 | 0.00 | 0.00 | 0.00 | 72 | 1006.7 |
| 20260510092532 | 25 | 119 | 0.0 | 0.0 | 0.00 | 0.00 | 0.00 | 71 | 1006.7 |
| 20260510092100 | 25 | 119 | 0.0 | 0.0 | 0.00 | 0.00 | 0.00 | 71 | 1006.8 |
| 20260510091615 | 25 | 119 | 0.0 | 0.0 | 0.00 | 0.00 | 0.00 | 72 | 1006.8 |
| 20260510091135 | 25 | 119 | 0.0 | 0.0 | 0.00 | 0.00 | 0.00 | 71 | 1006.8 |
| 20260510090521 | 25 | 119 | 0.0 | 0.0 | 0.00 | 0.00 | 0.00 | 71 | 1007.0 |
| 20260510090055 | 25 | 119 | 0.0 | 0.0 | 0.00 | 0.00 | 0.00 | 70 | 1007.0 |
| 20260510085519 | 25 | 119 | 0.0 | 0.0 | 0.00 | 0.00 | 0.00 | 70 | 1006.9 |
| 20260510085105 | 25 | 119 | 0.0 | 0.0 | 0.00 | 0.00 | 0.00 | 70 | 1006.9 |
| 20260510084621 | 25 | 119 | 0.0 | 0.0 | 0.00 | 0.00 | 0.00 | 69 | 1006.8 |
| 20260510084002 | 25 | 119 | 0.0 | 0.0 | 0.00 | 0.00 | 0.00 | 69 | 1006.9 |
| 20260510083522 | 25 | 119 | 0.0 | 0.0 | 0.00 | 0.00 | 0.00 | 69 | 1006.9 |
| 20260510083058 | 25 | 119 | 0.0 | 0.0 | 0.00 | 0.00 | 0.00 | 69 | 1007.0 |
| 20260510082615 | 25 | 119 | 0.0 | 0.0 | 0.00 | 0.00 | 0.00 | 69 | 1007.1 |
| 20260510082002 | 25 | 119 | 0.0 | 0.0 | 0.00 | 0.00 | 0.00 | 69 | 1007.0 |
| 20260510081517 | 25 | 119 | 0.0 | 0.0 | 0.00 | 0.00 | 0.00 | 69 | 1007.1 |
| 20260510081104 | 25 | 119 | 0.0 | 0.0 | 0.00 | 0.00 | 0.00 | 69 | 1007.1 |
| 20260510080619 | 25 | 119 | 0.0 | 0.0 | 0.00 | 0.00 | 0.00 | 69 | 1007.2 |
| 20260510080005 | 25 | 119 | 0.0 | 0.0 | 0.00 | 0.00 | 0.00 | 68 | 1007.3 |
| 20260510075523 | 25 | 119 | 0.0 | 0.0 | 0.00 | 0.00 | 0.00 | 68 | 1007.4 |
| 20260510075049 | 25 | 119 | 0.0 | 0.0 | 0.00 | 0.00 | 0.00 | 67 | 1007.5 |
| 20260510074608 | 25 | 119 | 0.0 | 0.0 | 0.00 | 0.00 | 0.00 | 67 | 1007.5 |
| 20260510074010 | 25 | 119 | 0.0 | 0.0 | 0.00 | 0.00 | 0.00 | 66 | 1007.5 |
| 20260510073529 | 25 | 119 | 0.0 | 0.0 | 0.00 | 0.00 | 0.00 | 65 | 1007.6 |
| 20260510073101 | 25 | 119 | 0.0 | 0.0 | 0.00 | 0.00 | 0.00 | 65 | 1007.7 |
| 20260510072619 | 25 | 119 | 0.0 | 0.0 | 0.00 | 0.00 | 0.00 | 65 | 1007.7 |
| 20260510072016 | 25 | 119 | 0.0 | 0.0 | 0.00 | 0.00 | 0.00 | 65 | 1007.7 |
| 20260510071541 | 25 | 119 | 0.0 | 0.0 | 0.00 | 0.00 | 0.00 | 66 | 1007.7 |
| 20260510071057 | 25 | 119 | 0.0 | 0.0 | 0.00 | 0.00 | 0.00 | 66 | 1007.7 |
| 20260510070617 | 25 | 119 | 0.0 | 0.0 | 0.00 | 0.00 | 0.00 | 66 | 1007.7 |
| 20260510070128 | 26 | 119 | 0.0 | 0.0 | 0.00 | 0.00 | 0.00 | 66 | 1007.8 |
| 20260510065522 | 26 | 119 | 0.0 | 1.6 | 0.00 | 0.00 | 0.00 | 66 | 1007.9 |
| 20260510065051 | 26 | 119 | 0.0 | 1.6 | 0.00 | 0.00 | 0.00 | 66 | 1007.9 |
| 20260510064605 | 26 | 119 | 0.0 | 1.6 | 0.00 | 0.00 | 0.00 | 66 | 1007.9 |
| 20260510064018 | 26 | 119 | 0.0 | 3.2 | 0.00 | 0.00 | 0.00 | 66 | 1007.9 |
| 20260510063533 | 26 | 119 | 0.0 | 3.2 | 0.00 | 0.00 | 0.00 | 66 | 1008.0 |
| 20260510063111 | 26 | 119 | 0.0 | 1.6 | 0.00 | 0.00 | 0.00 | 65 | 1008.0 |
| 20260510062630 | 26 | 119 | 0.0 | 3.2 | 0.00 | 0.00 | 0.00 | 65 | 1008.1 |
| 20260510062019 | 26 | 119 | 0.0 | 3.2 | 0.00 | 0.00 | 0.00 | 64 | 1008.1 |
| 20260510061540 | 26 | 119 | 0.0 | 1.6 | 0.00 | 0.00 | 0.00 | 64 | 1008.2 |
| 20260510061105 | 26 | 119 | 0.0 | 3.2 | 0.00 | 0.00 | 0.00 | 64 | 1008.3 |
| 20260510060622 | 26 | 119 | 1.6 | 3.2 | 0.00 | 0.00 | 0.00 | 64 | 1008.3 |
| 20260510060007 | 26 | 119 | 0.0 | 3.2 | 0.00 | 0.00 | 0.00 | 64 | 1008.3 |
| 20260510055525 | 26 | 119 | 1.6 | 3.2 | 0.00 | 0.00 | 0.00 | 65 | 1008.4 |
| 20260510055047 | 26 | 119 | 0.0 | 1.6 | 0.00 | 0.00 | 0.00 | 66 | 1008.5 |
| 20260510054605 | 26 | 119 | 0.0 | 3.2 | 0.00 | 0.00 | 0.00 | 66 | 1008.6 |
| 20260510054016 | 26 | 119 | 0.0 | 3.2 | 0.00 | 0.00 | 0.00 | 66 | 1008.6 |
| 20260510053532 | 26 | 119 | 0.0 | 1.6 | 0.00 | 0.00 | 0.00 | 67 | 1008.5 |
| 20260510053103 | 26 | 119 | 0.0 | 3.2 | 0.00 | 0.00 | 0.00 | 68 | 1008.5 |
| 20260510052617 | 26 | 119 | 0.0 | 3.2 | 0.00 | 0.00 | 0.00 | 68 | 1008.5 |
| 20260510052017 | 26 | 119 | 0.0 | 3.2 | 0.00 | 0.00 | 0.00 | 68 | 1008.4 |
| 20260510051531 | 26 | 119 | 0.0 | 3.2 | 0.00 | 0.00 | 0.00 | 68 | 1008.4 |
| 20260510051108 | 26 | 119 | 0.0 | 3.2 | 0.00 | 0.00 | 0.00 | 68 | 1008.5 |
| 20260510050626 | 26 | 119 | 0.0 | 3.2 | 0.00 | 0.00 | 0.00 | 68 | 1008.5 |
| 20260510050039 | 26 | 119 | 0.0 | 1.6 | 0.00 | 0.00 | 0.00 | 67 | 1008.6 |
| 20260510045604 | 26 | 119 | 0.0 | 3.2 | 0.00 | 0.00 | 0.00 | 67 | 1008.5 |
| 20260510045011 | 26 | 119 | 1.6 | 3.2 | 0.00 | 0.00 | 0.00 | 66 | 1008.5 |
| 20260510044529 | 26 | 119 | 0.0 | 3.2 | 0.00 | 0.00 | 0.00 | 66 | 1008.5 |
| 20260510044051 | 26 | 119 | 0.0 | 4.8 | 0.00 | 0.00 | 0.00 | 65 | 1008.5 |
| 20260510043609 | 26 | 120 | 1.6 | 4.8 | 0.00 | 0.00 | 0.00 | 65 | 1008.4 |
| 20260510043028 | 26 | 121 | 0.0 | 3.2 | 0.00 | 0.00 | 0.00 | 66 | 1008.4 |
| 20260510042531 | 26 | 121 | 0.0 | 3.2 | 0.00 | 0.00 | 0.00 | 67 | 1008.4 |
| 20260510042104 | 26 | 121 | 0.0 | 1.6 | 0.00 | 0.00 | 0.00 | 68 | 1008.4 |
| 20260510041619 | 26 | 121 | 0.0 | 3.2 | 0.00 | 0.00 | 0.00 | 68 | 1008.4 |
| 20260510041015 | 26 | 121 | 0.0 | 3.2 | 0.00 | 0.00 | 0.00 | 69 | 1008.4 |
| 20260510040533 | 26 | 121 | 0.0 | 3.2 | 0.00 | 0.00 | 0.00 | 69 | 1008.4 |
| 20260510040051 | 26 | 121 | 0.0 | 3.2 | 0.00 | 0.00 | 0.00 | 70 | 1008.3 |
| 20260510035613 | 26 | 121 | 1.6 | 3.2 | 0.00 | 0.00 | 0.00 | 71 | 1008.3 |
| 20260510035134 | 26 | 121 | 1.6 | 4.8 | 0.00 | 0.00 | 0.00 | 71 | 1008.2 |
| 20260510034517 | 26 | 121 | 1.6 | 3.2 | 0.00 | 0.00 | 0.00 | 72 | 1008.2 |
| 20260510034051 | 26 | 121 | 0.0 | 3.2 | 0.00 | 0.00 | 0.00 | 73 | 1008.2 |
| 20260510033607 | 26 | 121 | 0.0 | 4.8 | 0.00 | 0.00 | 0.00 | 73 | 1008.1 |
| 20260510033014 | 26 | 122 | 1.6 | 4.8 | 0.00 | 0.00 | 0.00 | 73 | 1008.1 |
| 20260510032533 | 26 | 121 | 1.6 | 4.8 | 0.00 | 0.00 | 0.00 | 73 | 1008.0 |
| 20260510032102 | 26 | 121 | 1.6 | 4.8 | 0.00 | 0.00 | 0.00 | 74 | 1008.0 |
| 20260510031615 | 26 | 175 | 1.6 | 4.8 | 0.00 | 0.00 | 0.00 | 75 | 1008.0 |
| 20260510031128 | 27 | 182 | 1.6 | 4.8 | 0.00 | 0.00 | 0.00 | 76 | 1007.9 |
| 20260510030508 | 27 | 182 | 1.6 | 4.8 | 0.00 | 0.00 | 0.00 | 75 | 1007.9 |
| 20260510030050 | 27 | 182 | 0.0 | 6.4 | 0.00 | 0.00 | 0.00 | 75 | 1007.9 |
| 20260510025615 | 27 | 182 | 3.2 | 6.4 | 0.00 | 0.00 | 0.00 | 75 | 1007.9 |
| 20260510025011 | 27 | 190 | 3.2 | 6.4 | 0.00 | 0.00 | 0.00 | 75 | 1007.8 |
| 20260510024531 | 27 | 190 | 1.6 | 6.4 | 0.00 | 0.00 | 0.00 | 75 | 1007.8 |
| 20260510024106 | 27 | 190 | 3.2 | 6.4 | 0.00 | 0.00 | 0.00 | 75 | 1007.7 |
| 20260510023624 | 27 | 233 | 1.6 | 8.0 | 0.00 | 0.00 | 0.00 | 75 | 1007.7 |
| 20260510023045 | 27 | 192 | 3.2 | 8.0 | 0.00 | 0.00 | 0.00 | 75 | 1007.7 |
| 20260510022603 | 27 | 193 | 3.2 | 9.7 | 0.00 | 0.00 | 0.00 | 76 | 1007.7 |
| 20260510022022 | 27 | 197 | 6.4 | 9.7 | 0.00 | 0.00 | 0.00 | 76 | 1007.6 |
| 20260510021548 | 27 | 193 | 3.2 | 9.7 | 0.00 | 0.00 | 0.00 | 76 | 1007.5 |
| 20260510021000 | 27 | 245 | 4.8 | 9.7 | 0.00 | 0.00 | 0.00 | 76 | 1007.5 |
| 20260510020516 | 27 | 227 | 1.6 | 8.0 | 0.00 | 0.00 | 0.00 | 75 | 1007.4 |
| 20260510020036 | 27 | 252 | 4.8 | 8.0 | 0.00 | 0.00 | 0.00 | 75 | 1007.3 |
| 20260510015616 | 27 | 267 | 3.2 | 8.0 | 0.00 | 0.00 | 0.00 | 75 | 1007.3 |
| 20260510015016 | 27 | 207 | 4.8 | 12.9 | 0.00 | 0.00 | 0.00 | 75 | 1007.2 |
| 20260510014535 | 27 | 198 | 4.8 | 12.9 | 0.00 | 0.00 | 0.00 | 75 | 1007.2 |
| 20260510014107 | 27 | 225 | 4.8 | 12.9 | 0.00 | 0.00 | 0.00 | 75 | 1007.1 |
| 20260510013625 | 27 | 183 | 6.4 | 12.9 | 0.00 | 0.00 | 0.00 | 75 | 1007.0 |
| 20260510013023 | 27 | 244 | 4.8 | 11.3 | 0.00 | 0.00 | 0.00 | 75 | 1006.9 |
| 20260510012539 | 27 | 196 | 6.4 | 11.3 | 0.00 | 0.00 | 0.00 | 75 | 1006.8 |
| 20260510012104 | 27 | 185 | 3.2 | 9.7 | 0.00 | 0.00 | 0.00 | 75 | 1006.8 |
| 20260510011629 | 27 | 195 | 4.8 | 12.9 | 0.00 | 0.00 | 0.00 | 75 | 1006.7 |
| 20260510011133 | 27 | 223 | 4.8 | 12.9 | 0.00 | 0.00 | 0.00 | 75 | 1006.6 |
| 20260510010513 | 27 | 184 | 4.8 | 14.5 | 0.00 | 0.00 | 0.00 | 75 | 1006.5 |
| 20260510010045 | 27 | 183 | 4.8 | 9.7 | 0.00 | 0.00 | 0.00 | 74 | 1006.5 |
| 20260510005605 | 27 | 244 | 6.4 | 14.5 | 0.00 | 0.00 | 0.00 | 74 | 1006.5 |
| 20260510005018 | 27 | 216 | 8.0 | 14.5 | 0.00 | 0.00 | 0.00 | 74 | 1006.4 |
| 20260510004533 | 27 | 250 | 4.8 | 12.9 | 0.00 | 0.00 | 0.00 | 75 | 1006.3 |
| 20260510004100 | 27 | 188 | 6.4 | 11.3 | 0.00 | 0.00 | 0.00 | 74 | 1006.2 |
| 20260510003615 | 27 | 240 | 4.8 | 12.9 | 0.00 | 0.00 | 0.00 | 74 | 1006.2 |
| 20260510003011 | 27 | 163 | 8.0 | 12.9 | 0.00 | 0.00 | 0.00 | 74 | 1006.2 |
| 20260510002531 | 27 | 238 | 6.4 | 16.1 | 0.00 | 0.00 | 0.00 | 73 | 1006.2 |
| 20260510002100 | 27 | 186 | 6.4 | 16.1 | 0.00 | 0.00 | 0.00 | 74 | 1006.1 |
| 20260510001616 | 27 | 163 | 8.0 | 17.7 | 0.00 | 0.00 | 0.00 | 73 | 1006.0 |
| 20260510001009 | 27 | 186 | 11.3 | 17.7 | 0.00 | 0.00 | 0.00 | 73 | 1006.1 |
| 20260510000527 | 28 | 241 | 8.0 | 19.3 | 0.00 | 0.00 | 0.00 | 73 | 1006.0 |
| 20260509235617 | 28 | 227 | 8.0 | 16.1 | 0.00 | 0.00 | 0.00 | 72 | 1005.9 |
| 20260509235017 | 28 | 224 | 8.0 | 14.5 | 0.00 | 0.00 | 0.00 | 72 | 1005.9 |
| 20260509234535 | 28 | 225 | 8.0 | 16.1 | 0.00 | 0.00 | 0.00 | 72 | 1005.8 |
| 20260509234051 | 28 | 196 | 9.7 | 14.5 | 0.00 | 0.00 | 0.00 | 71 | 1005.8 |
| 20260509233610 | 28 | 183 | 4.8 | 12.9 | 0.00 | 0.00 | 0.00 | 72 | 1005.8 |
| 20260509233006 | 28 | 236 | 4.8 | 14.5 | 0.00 | 0.00 | 0.00 | 72 | 1005.7 |
| 20260509232531 | 28 | 213 | 6.4 | 16.1 | 0.00 | 0.00 | 0.00 | 71 | 1005.6 |
| 20260509232041 | 28 | 235 | 4.8 | 16.1 | 0.00 | 0.00 | 0.00 | 72 | 1005.6 |
| 20260509231601 | 28 | 279 | 8.0 | 16.1 | 0.00 | 0.00 | 0.00 | 71 | 1005.5 |
| 20260509231016 | 28 | 211 | 8.0 | 14.5 | 0.00 | 0.00 | 0.00 | 71 | 1005.5 |
| 20260509230532 | 28 | 236 | 6.4 | 16.1 | 0.00 | 0.00 | 0.00 | 71 | 1005.4 |
| 20260509230051 | 28 | 210 | 8.0 | 20.9 | 0.00 | 0.00 | 0.00 | 72 | 1005.4 |
| 20260509225608 | 28 | 246 | 12.9 | 20.9 | 0.00 | 0.00 | 0.00 | 71 | 1005.5 |
| 20260509225009 | 28 | 189 | 8.0 | 16.1 | 0.00 | 0.00 | 0.00 | 70 | 1005.5 |
| 20260509224524 | 29 | 229 | 6.4 | 17.7 | 0.00 | 0.00 | 0.00 | 70 | 1005.6 |
| 20260509224051 | 29 | 226 | 8.0 | 17.7 | 0.00 | 0.00 | 0.00 | 69 | 1005.7 |
| 20260509223608 | 29 | 200 | 8.0 | 19.3 | 0.00 | 0.00 | 0.00 | 69 | 1005.7 |
| 20260509223000 | 29 | 185 | 9.7 | 20.9 | 0.00 | 0.00 | 0.00 | 69 | 1005.7 |
| 20260509222518 | 30 | 164 | 8.0 | 20.9 | 0.00 | 0.00 | 0.00 | 69 | 1005.7 |
| 20260509222050 | 30 | 198 | 9.7 | 27.4 | 0.00 | 0.00 | 0.00 | 68 | 1005.8 |
| 20260509221609 | 30 | 167 | 11.3 | 30.6 | 0.00 | 0.00 | 0.00 | 68 | 1005.9 |
| 20260509221005 | 30 | 198 | 9.7 | 22.5 | 0.00 | 0.00 | 0.00 | 67 | 1005.9 |
| 20260509220520 | 30 | 147 | 4.8 | 19.3 | 0.00 | 0.00 | 0.00 | 67 | 1005.9 |
| 20260509220056 | 30 | 249 | 6.4 | 16.1 | 0.00 | 0.00 | 0.00 | 67 | 1005.9 |
| 20260509215609 | 30 | 193 | 6.4 | 16.1 | 0.00 | 0.00 | 0.00 | 67 | 1005.9 |
| 20260509215008 | 30 | 208 | 8.0 | 19.3 | 0.00 | 0.00 | 0.00 | 67 | 1005.9 |
| 20260509214523 | 30 | 227 | 6.4 | 19.3 | 0.00 | 0.00 | 0.00 | 66 | 1005.9 |
| 20260509214056 | 30 | 246 | 8.0 | 16.1 | 0.00 | 0.00 | 0.00 | 66 | 1005.9 |
| 20260509213616 | 30 | 157 | 9.7 | 19.3 | 0.00 | 0.00 | 0.00 | 65 | 1005.8 |
| 20260509213134 | 30 | 167 | 9.7 | 20.9 | 0.00 | 0.00 | 0.00 | 66 | 1005.9 |
| 20260509212519 | 30 | 235 | 9.7 | 24.1 | 0.00 | 0.00 | 0.00 | 65 | 1006.0 |
| 20260509212108 | 30 | 217 | 8.0 | 24.1 | 0.00 | 0.00 | 0.00 | 65 | 1006.0 |
| 20260509211626 | 30 | 219 | 9.7 | 22.5 | 0.00 | 0.00 | 0.00 | 66 | 1006.1 |
| 20260509211103 | 30 | 195 | 11.3 | 25.7 | 0.00 | 0.00 | 0.00 | 65 | 1006.2 |
| 20260509210619 | 30 | 152 | 9.7 | 25.7 | 0.00 | 0.00 | 0.00 | 64 | 1006.3 |
| 20260509210020 | 30 | 198 | 12.9 | 24.1 | 0.00 | 0.00 | 0.00 | 64 | 1006.3 |
| 20260509205532 | 30 | 180 | 9.7 | 19.3 | 0.00 | 0.00 | 0.00 | 64 | 1006.4 |
| 20260509205056 | 30 | 205 | 8.0 | 19.3 | 0.00 | 0.00 | 0.00 | 64 | 1006.4 |
| 20260509204620 | 30 | 209 | 6.4 | 17.7 | 0.00 | 0.00 | 0.00 | 63 | 1006.4 |
| 20260509204012 | 30 | 159 | 8.0 | 24.1 | 0.00 | 0.00 | 0.00 | 62 | 1006.5 |
| 20260509203536 | 30 | 225 | 8.0 | 24.1 | 0.00 | 0.00 | 0.00 | 61 | 1006.5 |
| 20260509203116 | 31 | 207 | 12.9 | 20.9 | 0.00 | 0.00 | 0.00 | 60 | 1006.6 |
| 20260509202622 | 31 | 186 | 9.7 | 17.7 | 0.00 | 0.00 | 0.00 | 60 | 1006.7 |
| 20260509202008 | 30 | 217 | 9.7 | 25.7 | 0.00 | 0.00 | 0.00 | 60 | 1006.6 |
| 20260509201526 | 30 | 233 | 11.3 | 25.7 | 0.00 | 0.00 | 0.00 | 60 | 1006.6 |
| 20260509201107 | 30 | 195 | 8.0 | 24.1 | 0.00 | 0.00 | 0.00 | 60 | 1006.6 |
| 20260509200624 | 30 | 211 | 9.7 | 22.5 | 0.00 | 0.00 | 0.00 | 59 | 1006.6 |
| 20260509200004 | 30 | 217 | 8.0 | 24.1 | 0.00 | 0.00 | 0.00 | 59 | 1006.6 |
| 20260509195522 | 30 | 228 | 9.7 | 25.7 | 0.00 | 0.00 | 0.00 | 60 | 1006.6 |
| 20260509195058 | 30 | 194 | 14.5 | 20.9 | 0.00 | 0.00 | 0.00 | 58 | 1006.7 |
| 20260509194616 | 30 | 196 | 12.9 | 24.1 | 0.00 | 0.00 | 0.00 | 57 | 1006.8 |
| 20260509194026 | 30 | 202 | 12.9 | 16.1 | 0.00 | 0.00 | 0.00 | 55 | 1006.8 |
| 20260509193536 | 30 | 183 | 8.0 | 19.3 | 0.00 | 0.00 | 0.00 | 55 | 1006.9 |
| 20260509193128 | 30 | 221 | 9.7 | 17.7 | 0.00 | 0.00 | 0.00 | 55 | 1007.0 |
| 20260509192516 | 30 | 240 | 9.7 | 20.9 | 0.00 | 0.00 | 0.00 | 57 | 1007.0 |
| 20260509192108 | 30 | 229 | 11.3 | 20.9 | 0.00 | 0.00 | 0.00 | 61 | 1007.0 |
| 20260509191625 | 30 | 210 | 9.7 | 16.1 | 0.00 | 0.00 | 0.00 | 64 | 1007.1 |
| 20260509191006 | 30 | 193 | 9.7 | 17.7 | 0.00 | 0.00 | 0.00 | 64 | 1007.1 |
| 20260509190529 | 30 | 247 | 11.3 | 19.3 | 0.00 | 0.00 | 0.00 | 65 | 1007.2 |
| 20260509190051 | 30 | 200 | 8.0 | 17.7 | 0.00 | 0.00 | 0.00 | 66 | 1007.3 |
| 20260509185538 | 31 | 188 | 8.0 | 19.3 | 0.00 | 0.00 | 0.00 | 66 | 1007.4 |
| 20260509185128 | 30 | 122 | 9.7 | 20.9 | 0.00 | 0.00 | 0.00 | 68 | 1007.5 |
| 20260509184530 | 30 | 188 | 8.0 | 14.5 | 0.00 | 0.00 | 0.00 | 68 | 1007.5 |
| 20260509184054 | 30 | 242 | 8.0 | 17.7 | 0.00 | 0.00 | 0.00 | 68 | 1007.5 |
| 20260509183612 | 30 | 239 | 8.0 | 17.7 | 0.00 | 0.00 | 0.00 | 67 | 1007.5 |
| 20260509183028 | 30 | 257 | 6.4 | 17.7 | 0.00 | 0.00 | 0.00 | 66 | 1007.4 |
| 20260509182537 | 31 | 251 | 8.0 | 16.1 | 0.00 | 0.00 | 0.00 | 65 | 1007.5 |
| 20260509182103 | 31 | 259 | 8.0 | 16.1 | 0.00 | 0.00 | 0.00 | 65 | 1007.6 |
| 20260509181623 | 31 | 252 | 3.2 | 11.3 | 0.00 | 0.00 | 0.00 | 65 | 1007.5 |
| 20260509181011 | 31 | 234 | 4.8 | 12.9 | 0.00 | 0.00 | 0.00 | 65 | 1007.5 |
| 20260509180527 | 30 | 231 | 6.4 | 12.9 | 0.00 | 0.00 | 0.00 | 66 | 1007.5 |
| 20260509180058 | 30 | 262 | 6.4 | 16.1 | 0.00 | 0.00 | 0.00 | 66 | 1007.5 |
| 20260509175621 | 30 | 235 | 8.0 | 16.1 | 0.00 | 0.00 | 0.00 | 65 | 1007.5 |
| 20260509175008 | 30 | 234 | 6.4 | 16.1 | 0.00 | 0.00 | 0.00 | 65 | 1007.5 |
| 20260509174524 | 30 | 172 | 9.7 | 16.1 | 0.00 | 0.00 | 0.00 | 65 | 1007.5 |
| 20260509174108 | 30 | 256 | 8.0 | 14.5 | 0.00 | 0.00 | 0.00 | 64 | 1007.4 |
| 20260509173622 | 30 | 228 | 8.0 | 14.5 | 0.00 | 0.00 | 0.00 | 64 | 1007.4 |
| 20260509173010 | 30 | 221 | 6.4 | 12.9 | 0.00 | 0.00 | 0.00 | 65 | 1007.4 |
| 20260509172524 | 30 | 205 | 6.4 | 14.5 | 0.00 | 0.00 | 0.00 | 66 | 1007.4 |
| 20260509172051 | 30 | 237 | 6.4 | 14.5 | 0.00 | 0.00 | 0.00 | 65 | 1007.4 |
| 20260509171609 | 30 | 360 | 3.2 | 12.9 | 0.00 | 0.00 | 0.00 | 66 | 1007.4 |
| 20260509171004 | 30 | 274 | 3.2 | 12.9 | 0.00 | 0.00 | 0.00 | 65 | 1007.4 |
| 20260509170523 | 30 | 265 | 6.4 | 12.9 | 0.00 | 0.00 | 0.00 | 64 | 1007.5 |
| 20260509170039 | 30 | 225 | 4.8 | 12.9 | 0.00 | 0.00 | 0.00 | 64 | 1007.4 |
| 20260509165525 | 30 | 246 | 4.8 | 12.9 | 0.00 | 0.00 | 0.00 | 64 | 1007.5 |
| 20260509165112 | 30 | 248 | 4.8 | 12.9 | 0.00 | 0.00 | 0.00 | 65 | 1007.5 |
| 20260509164629 | 30 | 192 | 4.8 | 11.3 | 0.00 | 0.00 | 0.00 | 66 | 1007.5 |
| 20260509164046 | 29 | 234 | 6.4 | 11.3 | 0.00 | 0.00 | 0.00 | 67 | 1007.6 |
| 20260509163607 | 29 | 213 | 4.8 | 11.3 | 0.00 | 0.00 | 0.00 | 67 | 1007.6 |
| 20260509163008 | 29 | 281 | 4.8 | 12.9 | 0.00 | 0.00 | 0.00 | 67 | 1007.6 |
| 20260509162524 | 29 | 213 | 6.4 | 12.9 | 0.00 | 0.00 | 0.00 | 67 | 1007.6 |
| 20260509162058 | 29 | 240 | 6.4 | 12.9 | 0.00 | 0.00 | 0.00 | 67 | 1007.7 |
| 20260509161619 | 29 | 221 | 8.0 | 11.3 | 0.00 | 0.00 | 0.00 | 67 | 1007.7 |
| 20260509161018 | 29 | 232 | 8.0 | 11.3 | 0.00 | 0.00 | 0.00 | 66 | 1007.6 |
| 20260509160536 | 29 | 227 | 6.4 | 11.3 | 0.00 | 0.00 | 0.00 | 65 | 1007.6 |
| 20260509160051 | 29 | 207 | 4.8 | 8.0 | 0.00 | 0.00 | 0.00 | 63 | 1007.6 |
| 20260509155541 | 29 | 216 | 4.8 | 8.0 | 0.00 | 0.00 | 0.00 | 64 | 1007.6 |
| 20260509155133 | 29 | 250 | 3.2 | 8.0 | 0.00 | 0.00 | 0.00 | 64 | 1007.6 |
| 20260509154516 | 29 | 212 | 3.2 | 8.0 | 0.00 | 0.00 | 0.00 | 65 | 1007.5 |
| 20260509154104 | 29 | 292 | 3.2 | 6.4 | 0.00 | 0.00 | 0.00 | 64 | 1007.6 |
| 20260509153618 | 28 | 276 | 3.2 | 8.0 | 0.00 | 0.00 | 0.00 | 66 | 1007.5 |
| 20260509153015 | 28 | 227 | 1.6 | 8.0 | 0.00 | 0.00 | 0.00 | 65 | 1007.6 |
| 20260509152534 | 28 | 274 | 1.6 | 9.7 | 0.00 | 0.00 | 0.00 | 65 | 1007.6 |
| 20260509152102 | 28 | 244 | 3.2 | 9.7 | 0.00 | 0.00 | 0.00 | 65 | 1007.7 |
| 20260509151623 | 28 | 228 | 1.6 | 9.7 | 0.00 | 0.00 | 0.00 | 63 | 1007.6 |
| 20260509151133 | 27 | 237 | 3.2 | 6.4 | 0.00 | 0.00 | 0.00 | 61 | 1007.5 |
| 20260509150518 | 27 | 186 | 3.2 | 8.0 | 0.00 | 0.00 | 0.00 | 61 | 1007.5 |
| 20260509150045 | 27 | 231 | 3.2 | 6.4 | 0.00 | 0.00 | 0.00 | 61 | 1007.6 |
| 20260509145611 | 27 | 281 | 0.0 | 6.4 | 0.00 | 0.00 | 0.00 | 61 | 1007.6 |